Simultaneous Nadir Overpasses (SNOs) Predictions

Prediction of SNOs between NOAA-20 and METOP-C Satellite Orbit:

Table of predicted SNOs for the next 14.0 days since TLE Epoch: 11/11/2023
Index Date (NOAA-20) Time (NOAA-20) Lat,Lon (NOAA-20) SZA (NOAA-20 ) Date (METOP-C) Time (METOP-C) Lat,Lon (METOP-C) SZA (METOP-C ) Distance(km) Time Diff (sec)
1 11/21/2023 21:09:12 73.49,-147.02 93.49 11/21/2023 21:10:19 73.43,-144.39 93.37 83.38 67
2 11/21/2023 21:59:55 -73.43, 20.44 86.57 11/21/2023 22:01:03 -73.36, 22.78 86.70 74.63 68
3 11/21/2023 22:50:36 73.19,-171.72 93.19 11/21/2023 22:51:46 73.16,-170.33 93.12 44.94 70
4 11/21/2023 23:41:19 -73.13, -4.27 86.87 11/21/2023 23:42:30 -73.09, -3.16 86.94 36.34 71
5 11/22/2023 00:32:00 72.90, 163.55 92.89 11/22/2023 00:33:13 72.89, 163.75 92.88 6.49 73
6 11/22/2023 01:22:43 -72.84, -29.01 87.17 11/22/2023 01:23:57 -72.82, -29.07 87.19 2.44 74
7 11/22/2023 02:13:29 72.85, 138.27 92.86 11/22/2023 02:14:36 72.82, 138.26 92.82 2.95 67
8 11/22/2023 03:04:13 -72.84, -54.39 87.15 11/22/2023 03:05:18 -72.86, -54.35 87.14 2.38 65
9 11/22/2023 03:54:59 72.85, 112.89 92.87 11/22/2023 03:55:57 72.85, 112.99 92.87 3.10 58
10 11/22/2023 04:45:43 -72.84, -79.77 87.13 11/22/2023 04:46:40 -72.84, -79.73 87.14 1.56 57
11 11/22/2023 05:36:28 72.80, 87.62 92.84 11/22/2023 05:37:19 72.83, 87.61 92.87 3.42 51
12 11/22/2023 06:27:12 -72.79,-105.05 87.17 11/22/2023 06:28:02 -72.82,-105.11 87.15 3.24 50
13 11/22/2023 07:17:58 72.81, 62.24 92.86 11/22/2023 07:18:41 72.82, 62.23 92.86 0.96 43
14 11/22/2023 08:08:42 -72.80,-130.43 87.15 11/22/2023 08:09:24 -72.80,-130.49 87.15 1.92 42
15 11/22/2023 08:59:28 72.81, 36.85 92.88 11/22/2023 09:00:03 72.80, 36.85 92.86 1.58 35
16 11/22/2023 09:50:12 -72.80,-155.81 87.13 11/22/2023 09:50:46 -72.78,-155.87 87.15 3.03 34
17 11/22/2023 10:40:58 72.81, 11.47 92.90 11/22/2023 10:41:24 72.83, 11.57 92.91 3.67 26
18 11/22/2023 11:31:42 -72.80, 178.81 87.11 11/22/2023 11:32:07 -72.81, 178.86 87.11 1.82 25
19 11/22/2023 12:22:28 72.82, -13.91 92.92 11/22/2023 12:22:46 72.81, -13.81 92.90 3.48 18
20 11/22/2023 13:13:12 -72.81, 153.43 87.09 11/22/2023 13:13:29 -72.79, 153.48 87.11 2.41 17
21 11/22/2023 14:03:57 72.77, -39.18 92.88 11/22/2023 14:04:08 72.79, -39.19 92.90 2.25 11
22 11/22/2023 14:54:40 -72.76, 128.15 87.13 11/22/2023 14:54:50 -72.77, 128.10 87.11 2.23 10
23 11/22/2023 15:45:26 72.77, -64.57 92.90 11/22/2023 15:45:29 72.77, -64.57 92.90 0.25 3
24 11/22/2023 16:36:10 -72.76, 102.77 87.11 11/22/2023 16:36:12 -72.75, 102.72 87.12 1.98 2
25 11/22/2023 17:26:56 72.78, -89.95 92.92 11/22/2023 17:26:51 72.75, -89.95 92.89 2.75 5
26 11/22/2023 18:17:40 -72.77, 77.39 87.09 11/22/2023 18:17:33 -72.78, 77.45 87.07 2.77 7
27 11/22/2023 19:08:25 72.73,-115.22 92.88 11/22/2023 19:08:13 72.73,-115.32 92.89 3.37 12
28 11/22/2023 19:59:10 -72.77, 52.01 87.07 11/22/2023 19:58:55 -72.77, 52.07 87.08 1.94 15
29 11/22/2023 20:49:55 72.73,-140.60 92.90 11/22/2023 20:49:34 72.76,-140.60 92.94 3.55 21
30 11/22/2023 21:40:39 -72.72, 26.73 87.11 11/22/2023 21:40:17 -72.75, 26.69 87.08 3.10 22
31 11/22/2023 22:31:25 72.74,-165.99 92.92 11/22/2023 22:30:56 72.74,-165.98 92.93 1.08 29
32 11/22/2023 23:22:09 -72.72, 1.35 87.09 11/22/2023 23:21:39 -72.73, 1.31 87.08 1.47 30
33 11/23/2023 00:12:55 72.74, 168.63 92.94 11/23/2023 00:12:18 72.73, 168.64 92.93 1.49 37
34 11/23/2023 01:03:39 -72.73, -24.03 87.07 11/23/2023 01:03:01 -72.71, -24.07 87.09 2.68 38
35 11/23/2023 01:54:24 72.69, 143.36 92.90 11/23/2023 01:53:40 72.71, 143.26 92.93 3.52 44
36 11/23/2023 02:45:09 -72.73, -49.41 87.05 11/23/2023 02:44:22 -72.74, -49.35 87.04 2.28 47
37 11/23/2023 03:35:54 72.69, 117.97 92.92 11/23/2023 03:35:02 72.69, 117.88 92.92 3.13 52
38 11/23/2023 04:26:39 -72.73, -74.79 87.03 11/23/2023 04:25:44 -72.72, -74.73 87.04 2.72 55
39 11/23/2023 05:17:24 72.70, 92.59 92.94 11/23/2023 05:16:23 72.72, 92.61 92.97 2.37 61
40 11/23/2023 06:08:08 -72.69,-100.07 87.07 11/23/2023 06:07:06 -72.70,-100.11 87.05 1.92 62
41 11/23/2023 06:58:54 72.70, 67.21 92.96 11/23/2023 06:57:45 72.70, 67.23 92.96 0.61 69
42 11/23/2023 07:49:38 -72.69,-125.45 87.05 11/23/2023 07:48:28 -72.68,-125.49 87.05 1.56 70
43 11/23/2023 08:40:22 72.60, 42.04 92.87 11/23/2023 08:39:08 72.63, 41.74 92.91 10.17 74
44 11/23/2023 09:31:05 -72.54,-150.52 87.19 11/23/2023 09:29:52 -72.56,-151.07 87.15 18.47 73
45 11/23/2023 10:21:46 72.30, 17.27 92.57 11/23/2023 10:20:36 72.30, 15.75 92.62 51.23 70
46 11/23/2023 11:12:30 -72.29,-175.40 87.44 11/23/2023 11:11:19 -72.29,-176.96 87.40 52.80 71
47 11/23/2023 12:03:10 72.00, -7.52 92.27 11/23/2023 12:02:03 72.03, -10.12 92.37 89.33 67
48 11/23/2023 12:53:53 -71.94, 159.91 87.79 11/23/2023 12:52:47 -71.96, 157.08 87.69 97.64 66



Historial Predications of SNOs between NOAA-20 and METOP-C
